Flag for Canada Weather past 2 weeks in Stephenville, Newfoundland and Labrador, Canada

Now
45 °F

Partly sunny.


Feels Like: 42 °F
Forecast: 35 / 55 °F
Wind: 5 mph from Southwest

Location: Stephenville

Current Time: Jun 2, 2015 at 11:18:52 AM

Latest Report: Jun 2, 2015 at 10:30 AM


Visibility: 15 mi

Pressure: 30.42 "Hg

Humidity: 66%

Dew point: 34 °F

Location of StephenvilleLocation

Historic Weather in Stephenville — Graph

°F

Stephenville temperature yesterday

Maximum temperature yesterday: 52 °F (at 1:30 PM)
Minimum temperature yesterday: 36 °F (at 3:30 AM)
Average temperature yesterday: 44 °F

Past Weeks' High & Low Weather Summary

 TemperatureHumidityPressure
High68 °F (May 18, 4:30 PM)100% (May 21, 1:30 AM)30.45 "Hg (May 21, 1:30 AM)
Low30 °F (Jun 2, 5:30 AM)34% (May 22, 12:30 PM)29.36 "Hg (May 21, 12:30 AM)
Average49 °F79%29.98 "Hg
* Reported May 18 9:30 AM — Jun 2 9:30 AM, Stephenville, Weather by CustomWeather, © 2015

Note: Actual official high and low records may vary slightly from our data, if they occured in-between our weather recording intervals... More about our weather records

Advertising

Stephenville weather history for previous 24 hours

 ConditionsComfort  
Time TempWeatherWind HumidityBarometerVisibility
9:30 AM
Tue, Jun 2
43 °FPartly sunny.7 mph71%30.43 "Hg15 mi
8:30 AM41 °FPartly sunny.No wind66%30.43 "Hg15 mi
7:30 AM37 °FPartly sunny.No wind75%30.43 "Hg15 mi
6:30 AM34 °FScattered clouds.2 mph81%30.43 "Hg15 mi
5:30 AM30 °FPassing clouds.3 mph93%30.44 "Hg15 mi
4:30 AM32 °FPassing clouds.3 mph87%30.44 "Hg15 mi
3:30 AM34 °FPassing clouds.3 mph81%30.44 "Hg15 mi
2:30 AM36 °FPassing clouds.3 mph75%30.44 "Hg15 mi
1:30 AM37 °FPassing clouds.3 mph70%30.45 "Hg15 mi
12:30 AM36 °FPassing clouds.6 mph75%30.44 "Hg15 mi
11:30 PM
Mon, Jun 1
41 °FPassing clouds.6 mph57%30.43 "Hg15 mi
10:30 PM41 °FPassing clouds.6 mph57%30.42 "Hg15 mi
9:30 PM43 °FScattered clouds.2 mph49%30.42 "Hg15 mi
8:30 PM45 °FScattered clouds.7 mph46%30.42 "Hg15 mi
7:30 PM48 °FScattered clouds.8 mph37%30.40 "Hg15 mi
6:30 PM50 °FScattered clouds.14 mph37%30.40 "Hg15 mi
5:30 PM48 °FPartly sunny.13 mph40%30.41 "Hg15 mi
4:30 PM50 °FPartly sunny.15 mph40%30.41 "Hg15 mi
3:30 PM52 °FPartly sunny.10 mph47%30.42 "Hg15 mi
2:30 PM52 °FBroken clouds.14 mph41%30.42 "Hg15 mi
1:30 PM52 °FBroken clouds.8 mph41%30.41 "Hg15 mi
12:30 PM48 °FBroken clouds.10 mph46%30.42 "Hg15 mi
11:30 AM48 °FBroken clouds.8 mph46%30.43 "Hg15 mi
Weather by CustomWeather, © 2015

See weather overviewHow to use our weather pages